sat.trackr.live / text

‹ back to catalog

METEOSAT-11 (MSG-4)

NORAD 40732 · 2015-034A

PAYLOAD ACTIVE UNKNOWN

§ Identity

Operator
Country
EUME
Launch date
2015-07-15
Launch site
FRGUI
Launch vehicle
Mass (kg)
RCS (m²)
4.00

Purposes: comms, earth_obs

External: N2YO · Heavens-Above · Gunter

§ Orbital elements

Epoch: 2026-05-25T03:47:17.007072Z

Period
1,436.08 min
Inclination
3.1444°
Eccentricity
0.0001678
Mean motion
1.00273096 rev/d
Perigee alt
35,779.2 km
Apogee alt
35,793.3 km
Semi-major
42,164.4 km
B*
0.0000e+0
RAAN
71.2320°
Arg perigee
359.8351°
Mean anomaly
237.7587°
Rev number
698

§ Raw data

METEOSAT-11 (MSG-4)1 40732U 15034A   26145.15783573  .00000060  00000+0  00000+0 0  99902 40732   3.1444  71.2320 0001678 359.8351 237.7587  1.00273096  6985

JSON: /api/v1/satellites/40732 · /tle

For live sub-satellite position, see the globe view (requires WebGL).

§ Visibility from observer

Set your observer location to see the next 7 days of passes ≥ 10°. The values pass through the URL so the page stays shareable.

No JS? Fill the form by hand. The geolocation button needs JavaScript.